When you browse on this site, cookies collect data to enhance your experience and personalize the content and advertising you see.
Visit our Privacy Policy to learn more. By continuing to use the site, you agree to this use of cookies and data.
  • en France
  • Liste des pays
  • À 7 jours
  • Température de l'eau
  • Carte satellitaire
  • Carte météo
  • Widgets météo
  • user-avatar
    Se connecter

    Météo par heure à Platishino

    Ce jour, 18 Février, Lundi

    Heure Température Précipitation Vent Pression Humidité
    00:00 -4°C° 0 mm 3 m/s 755 mmHg 88%
    01:00 -3°C° 0 mm 2 m/s 756 mmHg 89%
    02:00 -5°C° 0 mm 2 m/s 756 mmHg 93%
    03:00 -5°C° 0 mm 2 m/s 756 mmHg 93%
    04:00 -5°C° 0 mm 2 m/s 757 mmHg 94%
    05:00 -4°C° 0 mm 1 m/s 757 mmHg 94%
    06:00 -4°C° 0 mm 1 m/s 758 mmHg 93%
    07:00 -4°C° 0 mm 1 m/s 758 mmHg 92%
    08:00 -4°C° 0 mm 1 m/s 758 mmHg 92%
    09:00 -3°C° 0 mm 1 m/s 758 mmHg 85%
    10:00 -2°C° 0 mm 0 m/s 759 mmHg 79%
    11:00 -1°C° 0 mm 0 m/s 759 mmHg 73%
    12:00 +1°C° 0 mm 1 m/s 759 mmHg 70%
    13:00 +1°C° 0 mm 1 m/s 758 mmHg 67%
    14:00 +2°C° 0 mm 1 m/s 758 mmHg 64%
    15:00 +1°C° 0 mm 1 m/s 758 mmHg 68%
    16:00 -2°C° 0 mm 2 m/s 758 mmHg 71%
    17:00 -2°C° 0 mm 2 m/s 757 mmHg 75%
    18:00 -2°C° 0 mm 2 m/s 757 mmHg 76%
    19:00 -4°C° 0 mm 3 m/s 757 mmHg 77%
    20:00 -4°C° 0 mm 3 m/s 756 mmHg 78%
    21:00 -4°C° 0 mm 3 m/s 756 mmHg 79%
    22:00 -4°C° 0 mm 4 m/s 755 mmHg 80%
    23:00 -4°C° 0 mm 4 m/s 755 mmHg 80%

    Demain, 19 Février, Mardi

    Heure Température Précipitation Vent Pression Humidité
    00:00 -3°C° 0 mm 4 m/s 755 mmHg 82%
    01:00 -3°C° 0 mm 4 m/s 754 mmHg 85%
    02:00 -3°C° 0 mm 4 m/s 754 mmHg 87%
    03:00 -3°C° 0 mm 4 m/s 753 mmHg 87%
    04:00 -2°C° 0 mm 5 m/s 753 mmHg 88%
    05:00 -2°C° 0 mm 5 m/s 752 mmHg 88%
    06:00 -2°C° 0 mm 5 m/s 752 mmHg 89%
    07:00 -2°C° 0 mm 5 m/s 751 mmHg 89%
    08:00 -2°C° 0 mm 5 m/s 751 mmHg 90%
    09:00 -1°C° 0 mm 5 m/s 750 mmHg 89%
    10:00 0°C° 0 mm 5 m/s 750 mmHg 87%
    11:00 +1°C° 0 mm 5 m/s 749 mmHg 86%
    12:00 +1°C° 0 mm 5 m/s 748 mmHg 86%
    13:00 +1°C° 0 mm 5 m/s 748 mmHg 86%
    14:00 +1°C° 0 mm 5 m/s 747 mmHg 86%
    15:00 +1°C° 0 mm 5 m/s 747 mmHg 87%
    16:00 +1°C° 0 mm 5 m/s 746 mmHg 88%
    17:00 0°C° 0 mm 4 m/s 745 mmHg 88%
    18:00 0°C° 0 mm 5 m/s 744 mmHg 88%
    19:00 0°C° 0 mm 5 m/s 744 mmHg 89%
    20:00 +1°C° 0 mm 5 m/s 743 mmHg 89%
    21:00 0°C° 0 mm 5 m/s 743 mmHg 89%
    22:00 0°C° 0 mm 5 m/s 742 mmHg 88%
    23:00 0°C° 0 mm 5 m/s 741 mmHg 88%

    Après-demain, 20 Février, Mercredi

    Heure Température Précipitation Vent Pression Humidité
    00:00 +1°C° 0.2 mm 5 m/s 741 mmHg 88%
    01:00 +1°C° 0.2 mm 5 m/s 741 mmHg 89%
    02:00 +1°C° 0.2 mm 5 m/s 741 mmHg 90%
    03:00 +1°C° 0 mm 5 m/s 741 mmHg 90%
    04:00 +1°C° 0 mm 5 m/s 741 mmHg 90%
    05:00 +1°C° 0 mm 4 m/s 741 mmHg 90%
    06:00 +1°C° 0.1 mm 5 m/s 741 mmHg 89%
    07:00 0°C° 0.1 mm 5 m/s 741 mmHg 88%
    08:00 0°C° 0.1 mm 5 m/s 741 mmHg 87%
    09:00 0°C° 0 mm 5 m/s 741 mmHg 85%
    10:00 +1°C° 0 mm 5 m/s 741 mmHg 82%
    11:00 +1°C° 0 mm 5 m/s 741 mmHg 80%
    12:00 +1°C° 0 mm 5 m/s 741 mmHg 80%
    13:00 +1°C° 0 mm 6 m/s 741 mmHg 80%
    14:00 +1°C° 0 mm 6 m/s 741 mmHg 79%
    15:00 +1°C° 0 mm 6 m/s 741 mmHg 80%
    16:00 +1°C° 0 mm 6 m/s 741 mmHg 81%
    17:00 -1°C° 0 mm 6 m/s 741 mmHg 81%
    18:00 -2°C° 0.1 mm 6 m/s 741 mmHg 77%
    19:00 -3°C° 0.1 mm 6 m/s 742 mmHg 73%
    20:00 -4°C° 0.1 mm 7 m/s 742 mmHg 69%
    21:00 -4°C° 0 mm 6 m/s 743 mmHg 71%
    22:00 -4°C° 0 mm 6 m/s 744 mmHg 72%
    23:00 -5°C° 0 mm 6 m/s 745 mmHg 73%

    21 Février, Jeudi

    Heure Température Précipitation Vent Pression Humidité
    00:00 -5°C° 0.1 mm 6 m/s 745 mmHg 71%
    01:00 -5°C° 0.1 mm 6 m/s 746 mmHg 70%
    02:00 -6°C° 0.1 mm 6 m/s 746 mmHg 68%
    03:00 -6°C° 0.1 mm 6 m/s 747 mmHg 67%
    04:00 -8°C° 0.1 mm 6 m/s 747 mmHg 66%
    05:00 -8°C° 0.1 mm 6 m/s 747 mmHg 65%
    06:00 -8°C° 0 mm 6 m/s 748 mmHg 64%
    07:00 -9°C° 0 mm 6 m/s 749 mmHg 62%
    08:00 -9°C° 0 mm 6 m/s 749 mmHg 61%
    09:00 -9°C° 0 mm 6 m/s 750 mmHg 60%
    10:00 -8°C° 0 mm 6 m/s 751 mmHg 59%
    11:00 -8°C° 0 mm 7 m/s 751 mmHg 57%
    12:00 -8°C° 0 mm 6 m/s 752 mmHg 57%
    13:00 -8°C° 0 mm 6 m/s 752 mmHg 56%
    14:00 -8°C° 0 mm 6 m/s 753 mmHg 56%
    15:00 -8°C° 0 mm 6 m/s 754 mmHg 58%
    16:00 -7°C° 0 mm 5 m/s 754 mmHg 59%
    17:00 -8°C° 0 mm 5 m/s 755 mmHg 61%
    18:00 -8°C° 0 mm 5 m/s 756 mmHg 63%
    19:00 -8°C° 0 mm 5 m/s 757 mmHg 64%
    20:00 -10°C° 0 mm 5 m/s 758 mmHg 65%
    21:00 -10°C° 0 mm 5 m/s 759 mmHg 65%
    22:00 -10°C° 0 mm 5 m/s 759 mmHg 66%
    23:00 -10°C° 0 mm 4 m/s 760 mmHg 66%

    22 Février, Vendredi

    Heure Température Précipitation Vent Pression Humidité
    00:00 -10°C° 0 mm 4 m/s 761 mmHg 67%
    01:00 -10°C° 0 mm 4 m/s 762 mmHg 68%
    02:00 -9°C° 0 mm 3 m/s 762 mmHg 70%
    03:00 -9°C° 0 mm 3 m/s 763 mmHg 70%
    04:00 -10°C° 0 mm 3 m/s 763 mmHg 70%
    05:00 -10°C° 0 mm 3 m/s 764 mmHg 70%
    06:00 -10°C° 0 mm 3 m/s 765 mmHg 71%
    07:00 -10°C° 0 mm 3 m/s 765 mmHg 72%
    08:00 -10°C° 0 mm 3 m/s 766 mmHg 72%
    09:00 -9°C° 0 mm 3 m/s 767 mmHg 69%
    10:00 -8°C° 0 mm 3 m/s 767 mmHg 65%
    11:00 -7°C° 0 mm 3 m/s 768 mmHg 62%
    12:00 -6°C° 0 mm 3 m/s 768 mmHg 58%
    13:00 -5°C° 0 mm 2 m/s 768 mmHg 55%
    14:00 -4°C° 0 mm 2 m/s 769 mmHg 51%
    15:00 -4°C° 0 mm 2 m/s 769 mmHg 54%
    16:00 -5°C° 0 mm 2 m/s 769 mmHg 56%
    17:00 -3°C° 0 mm 1 m/s 769 mmHg 59%
    18:00 -3°C° 0 mm 1 m/s 769 mmHg 60%
    19:00 -6°C° 0 mm 2 m/s 769 mmHg 62%
    20:00 -6°C° 0 mm 2 m/s 769 mmHg 64%
    21:00 -6°C° 0 mm 2 m/s 769 mmHg 62%
    22:00 -6°C° 0 mm 2 m/s 769 mmHg 61%
    23:00 -7°C° 0 mm 3 m/s 768 mmHg 59%

    23 Février, Samedi

    Heure Température Précipitation Vent Pression Humidité
    00:00 -6°C° 0 mm 3 m/s 768 mmHg 56%
    01:00 -7°C° 0 mm 4 m/s 767 mmHg 53%
    02:00 -5°C° 0 mm 4 m/s 767 mmHg 49%
    03:00 -5°C° 0.1 mm 4 m/s 766 mmHg 58%
    04:00 -7°C° 0.1 mm 4 m/s 765 mmHg 67%
    05:00 -7°C° 0.1 mm 5 m/s 764 mmHg 76%
    06:00 -7°C° 0.9 mm 5 m/s 763 mmHg 82%
    07:00 -7°C° 0.9 mm 5 m/s 762 mmHg 87%
    08:00 -7°C° 0.9 mm 5 m/s 761 mmHg 93%
    09:00 -6°C° 0.7 mm 5 m/s 760 mmHg 91%
    10:00 -5°C° 0.7 mm 5 m/s 759 mmHg 89%
    11:00 -4°C° 0.7 mm 5 m/s 758 mmHg 87%
    12:00 -2°C° 0 mm 5 m/s 757 mmHg 88%
    13:00 -1°C° 0 mm 4 m/s 757 mmHg 90%
    14:00 0°C° 0 mm 4 m/s 756 mmHg 92%
    15:00 +1°C° 0 mm 3 m/s 756 mmHg 93%
    16:00 +1°C° 0 mm 3 m/s 756 mmHg 94%
    17:00 +1°C° 0 mm 3 m/s 755 mmHg 95%
    18:00 +1°C° 0 mm 3 m/s 756 mmHg 95%
    19:00 +1°C° 0 mm 3 m/s 756 mmHg 95%
    20:00 +1°C° 0 mm 3 m/s 756 mmHg 95%
    21:00 +1°C° 0 mm 3 m/s 757 mmHg 95%
    22:00 0°C° 0 mm 3 m/s 757 mmHg 96%
    23:00 0°C° 0 mm 3 m/s 757 mmHg 96%
    Voir plus